This demonstration page uses our WeatherBlox Daily Observations layout. Learn more.

38.88101, -77.10428

Hourly Observations for April 26, 2020

Temp ( °F °C ) Dew Point ( °F °C ) Humidity (%) Winds ( mph kmh ) Pressure ( in mb ) Visibility ( mi km ) Precip ( " mm )
12:21 am 00:21 Cloudy 52 11.1 48 8.9 86 86 E 9 15 29.99 1016 10 16.0934 0.001 0.001
12:52 am 00:52 Cloudy 52 11.1 48 8.9 86 86 E 7 11 29.97 1015 10 16.0934 0.001 0.001
1:10 am 01:10 Cloudy 52 11.1 49 9.4 89 89 ESE 6 9 29.97 1015 10 16.0934 0 0
1:48 am 01:48 Cloudy 52 11 48 9 88 88 E 7 11 29.95 1014 7 11.26538 0 0
1:52 am 01:52 Cloudy with Mist and Fog 51 10.6 49 9.4 92 92 E 7 11 29.95 1014 5 8.0467 0 0
2:39 am 02:39 Cloudy with Drizzle 51 10.6 49 9.4 92 92 ENE 7 11 29.92 1013 2.5 4.02335 0.001 0.001
2:52 am 02:52 Cloudy with Drizzle 51 10.6 50 10 96 96 ENE 10 17 29.9 1013 3 4.82802 0.001 0.001
3:52 am 03:52 Cloudy with Light Rain 50 10 49 9.4 96 96 NE 7 11 29.91 1013 4 6.43736 0.001 0.001
4:29 am 04:29 Cloudy with Rain 50 10 49 9.4 96 96 NE 8 13 29.9 1013 3 4.82802 0.08 2.032
4:39 am 04:39 Cloudy with Light Rain 50 10 49 9.4 96 96 NE 7 11 29.89 1012 5 8.0467 0.09 2.286
4:52 am 04:52 Cloudy with Light Rain 50 10 49 9.4 96 96 NE 12 19 29.87 1012 7 11.26538 0.12 3.048
5:01 am 05:01 Cloudy with Light Rain 50 10 49 9.4 96 96 ENE 13 20 29.86 1011 7 11.26538 0.01 0.254
5:36 am 05:36 Cloudy with Light Rain 50 10 49 9.4 96 96 NE 12 19 29.83 1010 10 16.0934 0.04 1.016
5:52 am 05:52 Cloudy with Light Rain 50 10 49 9.4 96 96 NE 12 19 29.83 1010 10 16.0934 0.05 1.27
6:52 am 06:52 Cloudy with Light Rain 50 10 49 9.4 96 96 NNE 8 13 29.83 1010 10 16.0934 0.001 0.001
7:52 am 07:52 Cloudy with Light Rain 50 10 49 9.4 96 96 NNE 9 15 29.83 1010 6 9.65604 0.01 0.254
8:52 am 08:52 Cloudy with Light Rain 51 10.6 49 9.4 92 92 NNE 8 13 29.81 1009 7 11.26538 0.03 0.762
9:52 am 09:52 Cloudy 52 11.1 50 10 93 93 NNE 8 13 29.79 1009 10 16.0934 0.01 0.254
10:52 am 10:52 Cloudy with Light Rain 53 11.7 51 10.6 93 93 N 8 13 29.77 1008 2.5 4.02335 0.001 0.001
11:11 am 11:11 Cloudy with Mist and Fog 53 11.7 51 10.6 93 93 N 3 6 29.78 1008 4 6.43736 0.001 0.001
11:52 am 11:52 Cloudy with Mist and Fog 53 11.7 51 10.6 93 93 NNW 5 7 29.77 1008 4 6.43736 0.01 0.254
12:30 pm 12:30 Cloudy with Mist and Fog 54 12.2 52 11.1 93 93 NNW 8 13 29.74 1007 6 9.65604 0.001 0.001
12:52 pm 12:52 Cloudy 55 12.8 53 11.7 93 93 N 6 9 29.73 1007 10 16.0934 0.001 0.001
1:52 pm 13:52 Cloudy 56 13.3 52 11.1 87 87 N 5 7 29.72 1007 10 16.0934 0 0
2:11 pm 14:11 Cloudy 56 13.3 52 11.1 87 87 Calm 29.72 1006 10 16.0934 0 0
2:52 pm 14:52 Cloudy 56 13.3 52 11.1 87 87 Calm 29.72 1006 10 16.0934 0 0
3:52 pm 15:52 Cloudy 56 13.3 52 11.1 87 87 SW 5 7 29.71 1006 10 16.0934 0 0
4:52 pm 16:52 Cloudy 56 13.3 53 11.7 90 90 SSE 3 6 29.7 1006 10 16.0934 0 0
5:52 pm 17:52 Cloudy 56 13.3 53 11.7 90 90 S 5 7 29.7 1006 10 16.0934 0 0
6:52 pm 18:52 Cloudy 57 13.9 54 12.2 90 90 Calm 29.71 1006 10 16.0934 0 0
7:52 pm 19:52 Cloudy 57 13.9 52 11.1 83 83 N 8 13 29.72 1007 10 16.0934 0 0
8:52 pm 20:52 Cloudy 56 13.3 53 11.7 90 90 NNE 7 11 29.74 1007 10 16.0934 0 0
8:55 pm 20:55 Cloudy 56 13.3 53 11.7 90 90 NNE 7 11 29.74 1007 10 16.0934 0 0
9:29 pm 21:29 Cloudy with Light Rain 56 13.3 53 11.7 90 90 NNE 10 17 29.74 1007 10 16.0934 0.001 0.001
9:32 pm 21:32 Cloudy 56 13.3 53 11.7 90 90 NE 10 17 29.74 1007 10 16.0934 0.001 0.001
9:36 pm 21:36 Cloudy 55 12.8 53 11.7 93 93 NE 13 20 29.74 1007 10 16.0934 0.001 0.001
9:40 pm 21:40 Cloudy 55 12.8 53 11.7 93 93 NE 12 19 29.75 1007 10 16.0934 0.001 0.001
9:42 pm 21:42 Cloudy 55 12.8 53 11.7 93 93 NE 12 19 29.75 1007 10 16.0934 0.001 0.001
9:52 pm 21:52 Cloudy 55 12.8 53 11.7 93 93 NE 12 19 29.75 1008 10 16.0934 0.001 0.001
10:20 pm 22:20 Cloudy 54 12.2 52 11.1 93 93 NNE 9 15 29.77 1008 10 16.0934 0.001 0.001
10:47 pm 22:47 Cloudy with Light Rain 52 11 50 10 94 94 ENE 16 26 29.78 1008 10 16.0934 0.001 0.001
10:52 pm 22:52 Cloudy with Light Rain 52 11.1 50 10 93 93 NE 14 22 29.78 1009 10 16.0934 0.001 0.001
11:08 pm 23:08 Cloudy 52 11.1 50 10 93 93 NE 12 19 29.79 1009 10 16.0934 0.001 0.001
11:41 pm 23:41 Cloudy with Mist and Fog 51 10.6 50 10 96 96 NE 8 13 29.79 1009 4 6.43736 0.001 0.001
11:52 pm 23:52 Cloudy with Drizzle 52 11.1 50 10 93 93 NNE 12 19 29.8 1009 5 8.0467 0.001 0.001

Powered by AerisWeather